User: anonymous   Login
Location: Unspecified
(0.0000°N, 0.0000°E)
Time: 02:13:20
(UTC+00:00)
Language:

STARLINK-2232 - Orbit

View from above orbital plane
View from above orbital plane
View from above satellite
View from above satellite

Ground track
Ground track

The orbit is defined by the following mean orbital elements,

1 48578U          26145.44026310 +.00000000 +00000-0 +11511-3 0 00005
2 48578  53.1573 129.7707 0001254  90.4922 269.6224 15.31705519    07
Epoch (UTC): 25 May 2026 10:33:58
Eccentricity: 0.0001254
inclination: 53.1573°
perigee height: 470 km
apogee height: 472 km
right ascension of ascending node: 129.7707°
argument of perigee: 90.4922°
revolutions per day: 15.31705519
mean anomaly at epoch: 269.6224°

The dashed part of the orbit path shows where the satellite is in the earth's shadow,  

DLR